Location: Haliburton Scout Reserve
(45.0900°N, 78.3200°W)
Time: 14:57:10
(UTC-04:00)

Courier 1B Rocket - Pass Details

Date: 06 February 2023
Orbit: 920 x 1202 km, 28.2° (Epoch: 27 March)

Event Time Altitude Azimuth Distance (km) Brightness Sun altitude
Rises 16:37:41 0° 232° (SW) 3,620 10.3 7.1°
Reaches altitude 10° 16:41:26 10° 212° (SSW) 2,638 8.6 6.6°
Maximum altitude 16:45:04 16° 176° (S) 2,212 7.3 6.0°
Drops below altitude 10° 16:48:41 10° 140° (SE) 2,603 7.2 5.4°
Sets 16:52:20 0° 119° (ESE) 3,547 7.6 4.9°
